Погода в Подборовье

Россия / Санкт-Петербург и Ленинградская область     59°30′10″N   35°02′13″E
темп.,
°C
ветер,
м/с
пор.,
м/с
влажн.,
%
обл.,
%
осадки,
мм/ч
давл.,
гПа
погр.,
м
2 августа, пн
пн200:00+15юз289454 0.3 1006189
03:00+13зюз2795100 0.3 1007148
06:00+13юз2794100 0.0 1007167
09:00+19ююз246761 0.0 1007429
12:00+22ю3551100 0.0 10051233
15:00+25ююв4643100 0.0 10032340
18:00+20в3867100 0.1 999186
21:00+17юв51495100 4.1 996812
3 августа, вт
вт300:00+17ююв61393100 0.6 9921079
03:00+14юз81796100 0.9 9931126
06:00+14юз61487100 0.1 9981258
09:00+16юз6127296 0.1 10011095
12:00+18юз6116820 0.2 10031198
15:00+22зюз6104073 0.3 10032580
18:00+20юз59553 0.0 10041593
21:00+15зюз410756 0.1 1006845
4 августа, ср
ср400:00+12з3109430 0.0 1008488
03:00+11з279766 0.0 1010339
06:00+11зюз279512 0.0 1012254
09:00+16з46580 0.0 1013932
12:00+19з353957 0.0 10142213
15:00+18зюз2549100 0.0 1015622
18:00+18зсз2552100 0.0 1015437
21:00+15зюз1163100 0.0 101617
5 августа, чт
чт500:00+14сз1165100 0.0 101713
03:00+13сз1165100 0.0 101810
06:00+13в0065100 0.0 101811
09:00+16юв125959 0.0 1019203
12:00+21ю223376 0.0 10192486
15:00+20сз123596 0.0 10191577
18:00+21св113570 0.0 10181554
21:00+16вюв2454100 0.0 101974
6 августа, пт
пт600:00+14юв116396 0.0 102012
03:00+14ююв2363100 0.0 102059
06:00+14ююв2565100 0.0 1021138
09:00+19юв24445 0.0 1020445
12:00+22вюв453114 0.0 10202267
15:00+23вюв5630100 0.0 10182360
18:00+22юв4737100 0.0 10181969
21:00+18вюв41247100 0.0 1017483